[[{"header":{"parameterUnit":"m.s-1","parameterCategory":2,"la1":30.2991,"la2":30.254,"lo1":-89.0895,"lo2":-89.0444,"dy":0.0017,"dx":0.0017,"nx":28,"ny":28,"refTime":"2024-08-23T21:00:00:Z","depth":"0","parameterNumber":2,"parameterNumberName":"U-component_of_CURRENTS"},"data":[0,0,0,0,0,0,0,0,0,0,0,0,0,0,0,0,0,0,0,0,0,0,0,0,0,0,0,0,0,0,0,0,0,0,0,0,0,0,0,0,0,0,0,0,0,0,0,0,0,0,0,0,0,0,0,0,0,0,-0.185,-0.185,0,-0.1845,-0.1845,-0.1844,-0.1805,-0.1804,-0.1803,-0.1803,-0.1768,-0.1768,-0.1767,0,0,0,0,0,0,0,0,0,0,0,0,0,-0.18,-0.1801,-0.185,-0.185,-0.185,-0.1845,-0.1845,-0.1844,-0.1805,-0.1804,-0.1803,-0.1802,-0.1768,-0.1768,-0.1767,0,0,0,0,0,0,0,0,0,0,0,0,0,-0.1808,-0.1801,-0.185,-0.1832,-0.1831,-0.1845,-0.1845,-0.1844,-0.1805,-0.1804,-0.1803,-0.1802,-0.1768,-0.1768,-0.1767,-0.1784,0,0,-0.1766,-0.1766,0,0,0,0,0,0,0,0,-0.1808,-0.1809,-0.1835,-0.1834,-0.1832,-0.1828,-0.1815,-0.1824,-0.1805,-0.1811,-0.1803,-0.1801,-0.1788,-0.1786,-0.1783,-0.1783,-0.1781,-0.1766,-0.1766,-0.1765,-0.1765,0,0,0,0,0,0,0,-0.1807,-0.1809,-0.1844,-0.1835,-0.1834,-0.1817,-0.1817,-0.1816,-0.1802,-0.181,-0.1808,-0.1814,-0.1787,-0.1783,-0.1782,-0.1781,-0.1766,-0.1766,-0.1765,-0.1765,-0.1805,-0.1806,0,0,0,0,0,0,-0.1818,-0.1809,-0.1844,-0.1844,-0.1821,-0.1819,-0.1819,-0.1827,-0.1802,-0.1799,-0.1815,-0.1812,-0.1785,-0.1782,-0.178,-0.1815,-0.1765,-0.1765,-0.1765,-0.1804,-0.1805,-0.1807,0,0,0,0,0,0,-0.1817,-0.1821,-0.1845,-0.1829,-0.1831,-0.1822,-0.1831,-0.1828,-0.1823,-0.1807,-0.1802,-0.1814,-0.1784,-0.1781,-0.1786,-0.1813,-0.1765,-0.1764,-0.1802,-0.1804,-0.1806,-0.1874,0,0,0,0,0,0,-0.1815,-0.1821,-0.1828,-0.183,-0.1833,-0.1864,-0.1832,-0.1828,-0.183,-0.1826,-0.1805,-0.18,-0.1783,-0.1787,-0.1785,-0.1811,-0.1764,-0.18,-0.1803,-0.1805,-0.187,-0.1878,-0.1885,0,0,0,0,0,-0.1813,-0.1831,-0.1828,-0.1832,-0.1844,-0.1865,-0.1865,-0.1851,-0.1831,-0.184,-0.1823,-0.1801,-0.1801,-0.1787,-0.1785,-0.1812,-0.1799,-0.1802,-0.1805,-0.1867,-0.1877,-0.1885,0,0,0,0,0,0,-0.1812,-0.183,-0.1826,-0.1847,-0.186,-0.186,-0.1866,-0.1857,-0.185,-0.184,-0.1816,-0.1812,-0.1827,-0.1812,-0.1797,-0.1832,-0.1798,-0.1801,-0.1846,-0.1855,-0.1862,-0.188,-0.1764,0,0,0,0,0,-0.1818,-0.1833,-0.1849,-0.1865,-0.1874,-0.187,-0.1874,-0.1868,-0.1865,-0.186,-0.1846,-0.1835,-0.184,-0.184,-0.1837,-0.1856,-0.1846,-0.1873,-0.188,-0.1887,-0.1901,-0.1929,-0.1941,-0.1817,-0.1817,-0.1817,0,0,-0.1821,-0.1833,-0.184,-0.1865,-0.1869,-0.1893,-0.1869,-0.1882,-0.1901,-0.1859,-0.1872,-0.186,-0.185,-0.1871,-0.1877,-0.1861,-0.1911,-0.1891,-0.1896,-0.1907,-0.1934,-0.1946,-0.1956,-0.1819,-0.1818,-0.1818,0,0,-0.1838,-0.1847,-0.1866,-0.1884,-0.1902,-0.1908,-0.1916,-0.1922,-0.1923,-0.1938,-0.1916,-0.1931,-0.192,-0.1934,-0.1936,-0.1988,-0.1949,-0.1974,-0.2028,-0.2055,-0.2066,-0.2075,-0.2051,-0.2057,-0.1979,-0.1979,-0.1979,0,-0.184,-0.1866,-0.1876,-0.1902,-0.1919,-0.1919,-0.1946,-0.1958,-0.1964,-0.1976,-0.195,-0.197,-0.196,-0.2008,-0.2019,-0.2008,-0.199,-0.1993,-0.2066,-0.2075,-0.2083,-0.2056,-0.2063,-0.1983,-0.1983,-0.1982,-0.1982,0,-0.1872,-0.1895,-0.191,-0.1945,-0.1967,-0.199,-0.2015,-0.2035,-0.203,-0.2039,-0.2075,-0.207,-0.2081,-0.2086,-0.2063,-0.2123,-0.2077,-0.2071,-0.2044,-0.21,-0.2067,-0.2073,-0.1988,-0.1987,-0.1986,-0.1985,0,0,-0.1866,-0.1922,-0.1924,-0.1946,-0.1989,-0.2009,-0.2058,-0.2101,-0.2129,-0.2142,-0.2177,-0.2203,-0.2191,-0.2194,-0.218,-0.2209,-0.2241,-0.2161,-0.216,-0.2136,-0.2256,-0.2251,-0.2256,-0.2239,-0.2241,-0.2243,-0.2199,0,-0.1884,-0.1934,-0.1962,-0.2011,-0.2038,-0.207,-0.2114,-0.2154,-0.2177,-0.2211,-0.2235,-0.2253,-0.2235,-0.2231,-0.2265,-0.2244,-0.2262,-0.225,-0.2205,-0.2203,-0.2194,-0.2266,-0.2229,-0.219,-0.2204,-0.2205,-0.2205,0,-0.1899,-0.1931,-0.1979,-0.2041,-0.2056,-0.2087,-0.2154,-0.2195,-0.2257,-0.2268,-0.231,-0.2311,-0.2355,-0.2324,-0.235,-0.2334,-0.2302,-0.229,-0.2288,-0.227,-0.2212,-0.2142,-0.2199,-0.2175,-0.2213,-0.2213,-0.2212,0,-0.1872,-0.194,-0.1975,-0.1996,-0.207,-0.2098,-0.2136,-0.2205,-0.2247,-0.2299,-0.2322,-0.237,-0.2377,-0.2385,-0.236,-0.2346,-0.2372,-0.2347,-0.2317,-0.2313,-0.2269,-0.226,-0.2305,-0.2375,-0.2375,-0.2376,-0.2376,0,-0.1874,-0.19,-0.1962,-0.1979,-0.2025,-0.2079,-0.2134,-0.218,-0.225,-0.23,-0.2338,-0.2381,-0.2394,-0.241,-0.2381,-0.237,-0.2388,-0.2345,-0.2325,-0.2288,-0.2281,-0.2247,-0.2248,-0.2374,-0.2374,-0.2375,-0.2375,0,-0.1835,-0.1879,-0.1919,-0.1988,-0.2012,-0.2038,-0.2124,-0.2163,-0.2231,-0.2296,-0.231,-0.2384,-0.2409,-0.2417,-0.2415,-0.239,-0.2351,-0.2365,-0.2298,-0.2273,-0.2236,-0.2241,-0.2241,-0.218,-0.233,-0.233,-0.233,0,-0.182,-0.1833,-0.1904,-0.1921,-0.1949,-0.2001,-0.2038,-0.2131,-0.2178,-0.2301,-0.2325,-0.2387,-0.2431,-0.2437,-0.2416,-0.2383,-0.2341,-0.2306,-0.2304,-0.2256,-0.2246,-0.2215,-0.216,-0.2243,-0.2242,-0.2242,-0.2241,0,-0.1777,-0.1797,-0.1823,-0.1864,-0.19,-0.1952,-0.2013,-0.2057,-0.2168,-0.2239,-0.2333,-0.2389,-0.2434,-0.2427,-0.2396,-0.2356,-0.227,-0.2294,-0.2276,-0.223,-0.2168,-0.209,-0.2209,-0.2236,-0.2237,-0.2237,-0.2237,-0.2238,-0.1727,-0.1731,-0.1761,-0.1792,-0.1836,-0.1879,-0.189,-0.1987,-0.2068,-0.217,-0.2283,-0.2369,-0.2413,-0.2397,-0.236,-0.2271,-0.2251,-0.2196,-0.2212,-0.2187,-0.2137,-0.2236,-0.2232,-0.2233,-0.2233,-0.2234,-0.2234,0,-0.166,-0.1667,-0.1688,-0.172,-0.1727,-0.1783,-0.185,-0.1855,-0.1924,-0.2079,-0.2175,-0.2332,-0.2336,-0.2351,-0.2312,-0.2219,-0.2124,-0.2131,-0.2077,-0.2027,-0.214,-0.2147,-0.2088,-0.2088,-0.2088,-0.2088,-0.2088,-0.2088,-0.1622,-0.1609,-0.162,-0.1599,-0.1614,-0.1594,-0.1608,-0.1653,-0.1739,-0.1881,-0.2033,-0.2219,-0.2264,-0.2428,-0.2329,-0.2208,-0.2093,-0.2029,-0.1995,-0.2089,-0.2095,-0.2101,-0.2107,-0.2041,-0.2041,-0.1816,-0.1815,-0.1814]},{"header":{"parameterUnit":"m.s-1","parameterCategory":2,"la1":30.2991,"la2":30.254,"lo1":-89.0895,"lo2":-89.0444,"dy":0.0017,"dx":0.0017,"nx":28,"ny":28,"refTime":"2024-08-23T21:00:00:Z","depth":"0","parameterNumber":3,"parameterNumberName":"V-component_of_CURRENTS"},"data":[0,0,0,0,0,0,0,0,0,0,0,0,0,0,0,0,0,0,0,0,0,0,0,0,0,0,0,0,0,0,0,0,0,0,0,0,0,0,0,0,0,0,0,0,0,0,0,0,0,0,0,0,0,0,0,0,0,0,-0.0151,-0.015,0,-0.0089,-0.0088,-0.0088,-0.0058,-0.0057,-0.0057,-0.0057,0.0003,0.0004,0.0006,0,0,0,0,0,0,0,0,0,0,0,0,0,-0.0197,-0.0197,-0.0151,-0.015,-0.0149,-0.0089,-0.0088,-0.0088,-0.0058,-0.0057,-0.0057,-0.0057,0.0002,0.0004,0.0006,0,0,0,0,0,0,0,0,0,0,0,0,0,-0.0162,-0.0197,-0.0151,-0.0126,-0.0123,-0.0089,-0.0088,-0.0087,-0.0058,-0.0057,-0.0057,-0.0057,0.0002,0.0004,0.0006,0.0016,0,0,0.0013,0.0014,0,0,0,0,0,0,0,0,-0.0164,-0.0161,-0.013,-0.0127,-0.0124,-0.0079,-0.0082,-0.0052,-0.0058,-0.0084,-0.0057,-0.0057,-0.0024,-0.0019,-0.0011,0.0019,0.0021,0.0013,0.0015,0.0015,0.0016,0,0,0,0,0,0,0,-0.0167,-0.0163,-0.0128,-0.0129,-0.0125,-0.0101,-0.0097,-0.0077,-0.0057,-0.0082,-0.0079,-0.007,-0.0022,-0.0013,-0.0009,0.0022,0.0013,0.0015,0.0016,0.0017,0.0067,0.0067,0,0,0,0,0,0,-0.0174,-0.0166,-0.013,-0.0126,-0.0142,-0.0101,-0.0096,-0.0095,-0.0057,-0.0051,-0.007,-0.0068,-0.0017,-0.0012,-0.0007,0.001,0.0015,0.0018,0.0019,0.0067,0.0067,0.0067,0,0,0,0,0,0,-0.0175,-0.0172,-0.0132,-0.0142,-0.0135,-0.0101,-0.01,-0.0094,-0.0084,-0.0048,-0.0042,-0.0065,-0.0016,-0.001,0.0012,0.0012,0.0019,0.0021,0.0067,0.0067,0.0067,0.0041,0,0,0,0,0,0,-0.0177,-0.0173,-0.0174,-0.0143,-0.0135,-0.0118,-0.01,-0.0093,-0.0077,-0.0075,-0.0042,-0.0036,-0.0016,0.0008,0.0014,0.0015,0.0022,0.0067,0.0067,0.0067,0.0042,0.004,0.0038,0,0,0,0,0,-0.0179,-0.0184,-0.0175,-0.017,-0.0139,-0.0118,-0.0112,-0.0087,-0.0077,-0.0076,-0.0051,-0.0037,0.0012,0.001,0.0017,0.0019,0.0067,0.0067,0.0067,0.0042,0.004,0.0038,0,0,0,0,0,0,-0.0205,-0.0181,-0.017,-0.0167,-0.0145,-0.0112,-0.0107,-0.0089,-0.0068,-0.0067,-0.0035,-0.0028,-0.0009,0.0008,0.0005,0.0033,0.0041,0.0043,0.002,0.0019,0.0017,0.0005,0.0024,0,0,0,0,0,-0.0211,-0.0211,-0.0181,-0.018,-0.017,-0.0139,-0.0127,-0.0111,-0.0087,-0.0077,-0.0052,-0.0027,-0.0004,0.0009,0.003,0.0046,0.0072,0.0051,0.005,0.0048,0.0043,0.0096,0.0099,0.0067,0.0067,0.0067,0,0,-0.0221,-0.0207,-0.0207,-0.0185,-0.0167,-0.0161,-0.0132,-0.0119,-0.0112,-0.0074,-0.006,-0.0033,-0.0002,0.0017,0.0027,0.0032,0.0068,0.0048,0.0046,0.0042,0.0096,0.0099,0.0102,0.0067,0.0067,0.0067,0,0,-0.0245,-0.0229,-0.0239,-0.0225,-0.02,-0.0178,-0.0176,-0.0144,-0.0128,-0.0109,-0.008,-0.005,-0.0021,0.0008,0.0025,0.0027,0.0056,0.003,0.0015,0.0066,0.0069,0.0072,0.0099,0.0104,0.0031,0.0031,0.0031,0,-0.0259,-0.0266,-0.0237,-0.0243,-0.0236,-0.0189,-0.0199,-0.0172,-0.0137,-0.0125,-0.0112,-0.0052,-0.0023,0.0009,0.0009,0.0024,0.0048,0.002,0.0065,0.0068,0.0072,0.0098,0.0105,0.0029,0.0029,0.003,0.003,0,-0.0291,-0.0295,-0.0299,-0.0292,-0.028,-0.0278,-0.0241,-0.0222,-0.0194,-0.0167,-0.013,-0.008,-0.0046,-0.0028,-0.0009,0.0029,0.0035,0.0056,0.0069,0.0074,0.0101,0.0108,0.0027,0.0028,0.0028,0.0029,0,0,-0.0328,-0.0324,-0.0327,-0.0336,-0.0308,-0.0305,-0.0287,-0.0259,-0.0249,-0.0198,-0.018,-0.0122,-0.0089,-0.0068,-0.0028,0.002,0.0067,0.0043,0.0047,0.0068,0.0164,0.0194,0.0205,0.0099,0.01,0.0101,0.0168,0,-0.0363,-0.0395,-0.0376,-0.0399,-0.041,-0.0367,-0.036,-0.0327,-0.0284,-0.0251,-0.0179,-0.0148,-0.0105,-0.0087,-0.003,0.0044,0.0087,0.0046,0.0157,0.016,0.0187,0.0215,0.0245,0.0311,0.0176,0.0177,0.0178,0,-0.0401,-0.0418,-0.0453,-0.0462,-0.0464,-0.0463,-0.0441,-0.0425,-0.0359,-0.033,-0.0268,-0.0212,-0.0134,-0.0098,0.0037,0.0009,0.0076,0.0138,0.0143,0.0186,0.0205,0.0287,0.0329,0.0471,0.019,0.0189,0.0188,0,-0.045,-0.0471,-0.0504,-0.0506,-0.0504,-0.0507,-0.0496,-0.0449,-0.0441,-0.0369,-0.0353,-0.025,-0.0197,-0.0087,0.0045,0.0041,0.0195,0.0206,0.0294,0.0296,0.0351,0.0355,0.0543,0.0295,0.0295,0.0294,0.0294,0,-0.0495,-0.052,-0.0529,-0.0547,-0.0587,-0.056,-0.0577,-0.0549,-0.0507,-0.0504,-0.0395,-0.036,-0.0189,-0.0078,0.0034,0.0194,0.019,0.0297,0.0325,0.034,0.0343,0.0491,0.055,0.0297,0.0296,0.0296,0.0296,0,-0.054,-0.0545,-0.0587,-0.0603,-0.0611,-0.0637,-0.0642,-0.0653,-0.0598,-0.0584,-0.0566,-0.0432,-0.0279,-0.011,0.0077,0.0179,0.0411,0.0375,0.0371,0.0398,0.0606,0.0659,0.0857,0.0904,0.0481,0.0482,0.0483,0,-0.0566,-0.0591,-0.0639,-0.0676,-0.0684,-0.0714,-0.0742,-0.0707,-0.071,-0.0631,-0.0629,-0.0474,-0.0366,-0.0069,0.0158,0.0373,0.0473,0.0509,0.0514,0.0634,0.0715,0.0751,0.0777,0.0569,0.057,0.0572,0.0573,0,-0.0614,-0.0629,-0.0668,-0.0751,-0.0794,-0.0842,-0.0863,-0.088,-0.0836,-0.0818,-0.0748,-0.0649,-0.0326,-0.0034,0.0272,0.0396,0.0617,0.0543,0.0688,0.0819,0.0853,0.0905,0.0487,0.0585,0.0584,0.0583,0.0583,0.0582,-0.0648,-0.0693,-0.0751,-0.083,-0.0892,-0.0958,-0.0999,-0.1013,-0.103,-0.0995,-0.0849,-0.0682,-0.0205,0.0249,0.0416,0.0782,0.073,0.0869,0.0926,0.0952,0.1005,0.06,0.072,0.072,0.0719,0.0719,0.0719,0,-0.0689,-0.0745,-0.0827,-0.0922,-0.1012,-0.102,-0.108,-0.1115,-0.1152,-0.1071,-0.0978,-0.0474,-0.0001,0.0442,0.0993,0.117,0.1187,0.124,0.1311,0.1319,0.0989,0.1001,0.1165,0.1165,0.1165,0.1165,0.1164,0.1164,-0.0713,-0.0798,-0.0849,-0.1007,-0.1077,-0.1181,-0.1221,-0.1263,-0.1221,-0.1081,-0.0835,-0.0602,0.0095,0.1059,0.1566,0.1576,0.17,0.168,0.1732,0.1529,0.1499,0.147,0.1498,0.1764,0.1764,0.2036,0.2039,0.2041]}],[{"header":{"parameterUnit":"m.s-1","parameterCategory":2,"la1":30.2991,"la2":30.254,"lo1":-89.0895,"lo2":-89.0444,"dy":0.0017,"dx":0.0017,"nx":28,"ny":28,"refTime":"2024-08-23T21:00:00:Z","depth":"2","parameterNumber":2,"parameterNumberName":"U-component_of_CURRENTS"},"data":[0,0,0,0,0,0,0,0,0,0,0,0,0,0,0,0,0,0,0,0,0,0,0,0,0,0,0,0,0,0,0,0,0,0,0,0,0,0,0,0,0,0,0,0,0,0,0,0,0,0,0,0,0,0,0,0,0,0,-0.1706,-0.1706,0,-0.1704,-0.1704,-0.1704,-0.1669,-0.1668,-0.1668,-0.1667,-0.1638,-0.1638,-0.1637,0,0,0,0,0,0,0,0,0,0,0,0,0,-0.1659,-0.166,-0.1706,-0.1706,-0.1707,-0.1704,-0.1704,-0.1704,-0.1669,-0.1668,-0.1668,-0.1667,-0.1638,-0.1638,-0.1637,0,0,0,0,0,0,0,0,0,0,0,0,0,-0.1668,-0.1661,-0.1706,-0.1692,-0.1691,-0.1704,-0.1704,-0.1703,-0.1669,-0.1668,-0.1668,-0.1667,-0.1638,-0.1638,-0.1637,-0.1652,0,0,-0.1636,-0.1636,0,0,0,0,0,0,0,0,-0.1667,-0.1669,-0.1693,-0.1693,-0.1692,-0.1689,-0.1677,-0.1686,-0.1669,-0.1674,-0.1667,-0.1666,-0.1655,-0.1653,-0.165,-0.1651,-0.1649,-0.1636,-0.1636,-0.1636,-0.1635,0,0,0,0,0,0,0,-0.1667,-0.1669,-0.1702,-0.1694,-0.1693,-0.1679,-0.1679,-0.1678,-0.1666,-0.1673,-0.1672,-0.1677,-0.1654,-0.1651,-0.1649,-0.1649,-0.1636,-0.1636,-0.1635,-0.1635,-0.1676,-0.1677,0,0,0,0,0,0,-0.1676,-0.1669,-0.1702,-0.1702,-0.1681,-0.1681,-0.168,-0.1688,-0.1667,-0.1664,-0.1678,-0.1676,-0.1652,-0.165,-0.1648,-0.1684,-0.1636,-0.1635,-0.1635,-0.1674,-0.1676,-0.1677,0,0,0,0,0,0,-0.1675,-0.1679,-0.1702,-0.1688,-0.169,-0.1683,-0.1691,-0.1688,-0.1686,-0.1671,-0.1667,-0.1679,-0.1651,-0.1649,-0.1656,-0.1681,-0.1635,-0.1635,-0.1673,-0.1675,-0.1677,-0.1742,0,0,0,0,0,0,-0.1674,-0.1679,-0.1686,-0.1689,-0.1691,-0.1722,-0.1692,-0.1689,-0.1693,-0.169,-0.1671,-0.1667,-0.165,-0.1657,-0.1655,-0.168,-0.1634,-0.1671,-0.1674,-0.1676,-0.1739,-0.1746,-0.1753,0,0,0,0,0,-0.1672,-0.1689,-0.1686,-0.1691,-0.1702,-0.1723,-0.1723,-0.1712,-0.1694,-0.1704,-0.1689,-0.1668,-0.1671,-0.1657,-0.1656,-0.1681,-0.167,-0.1673,-0.1676,-0.1735,-0.1745,-0.1753,0,0,0,0,0,0,-0.1672,-0.1688,-0.1685,-0.1705,-0.1718,-0.1719,-0.1726,-0.1718,-0.1714,-0.1706,-0.1683,-0.1679,-0.1696,-0.1681,-0.1667,-0.17,-0.1668,-0.1671,-0.1714,-0.1723,-0.173,-0.1745,-0.1634,0,0,0,0,0,-0.1677,-0.1692,-0.1707,-0.1723,-0.1731,-0.1729,-0.1734,-0.173,-0.1728,-0.1724,-0.1713,-0.1704,-0.1708,-0.1708,-0.1706,-0.1725,-0.1716,-0.1741,-0.1748,-0.1755,-0.1767,-0.1797,-0.1808,-0.1687,-0.1687,-0.1687,0,0,-0.1681,-0.1692,-0.1699,-0.1723,-0.1728,-0.1752,-0.1729,-0.1744,-0.1763,-0.1723,-0.1739,-0.1728,-0.1718,-0.1739,-0.1745,-0.1729,-0.1778,-0.1758,-0.1764,-0.1773,-0.1801,-0.1813,-0.1824,-0.1689,-0.1688,-0.1688,0,0,-0.1698,-0.1707,-0.1725,-0.1743,-0.1762,-0.1768,-0.1776,-0.1784,-0.1787,-0.1803,-0.1783,-0.1796,-0.1788,-0.1799,-0.18,-0.185,-0.1815,-0.1839,-0.189,-0.1919,-0.1929,-0.1939,-0.1914,-0.192,-0.1844,-0.1844,-0.1844,0,-0.1701,-0.1726,-0.1735,-0.1761,-0.1777,-0.1779,-0.1806,-0.1819,-0.1827,-0.1839,-0.1816,-0.1834,-0.1825,-0.1867,-0.1879,-0.1869,-0.1855,-0.1856,-0.1929,-0.1938,-0.1947,-0.1919,-0.1925,-0.1848,-0.1847,-0.1847,-0.1846,0,-0.1732,-0.1754,-0.1769,-0.1803,-0.1825,-0.1849,-0.1873,-0.1894,-0.1893,-0.1901,-0.1935,-0.1928,-0.1938,-0.1942,-0.1922,-0.198,-0.1938,-0.1934,-0.1908,-0.1963,-0.1929,-0.1935,-0.1853,-0.1851,-0.185,-0.1849,0,0,-0.1727,-0.178,-0.1783,-0.1804,-0.1847,-0.1867,-0.1915,-0.1957,-0.1984,-0.1998,-0.203,-0.2053,-0.2041,-0.2043,-0.2029,-0.2058,-0.2093,-0.2019,-0.2019,-0.1995,-0.2115,-0.2109,-0.2114,-0.2099,-0.2101,-0.2103,-0.2057,0,-0.1745,-0.1793,-0.182,-0.1868,-0.1894,-0.1926,-0.1969,-0.2008,-0.2032,-0.2065,-0.2083,-0.21,-0.2082,-0.2079,-0.2113,-0.2097,-0.2115,-0.2103,-0.2065,-0.2063,-0.2054,-0.2124,-0.1962,-0.1912,-0.2062,-0.2063,-0.2064,0,-0.176,-0.1791,-0.1838,-0.1897,-0.1912,-0.1943,-0.2007,-0.2048,-0.2107,-0.212,-0.2156,-0.2157,-0.2196,-0.217,-0.2194,-0.2181,-0.2156,-0.2146,-0.2144,-0.2126,-0.2071,-0.1887,-0.1915,-0.2072,-0.2071,-0.2071,-0.207,0,-0.1736,-0.1801,-0.1835,-0.1855,-0.1925,-0.1954,-0.1991,-0.2058,-0.2098,-0.215,-0.2173,-0.2215,-0.2221,-0.2232,-0.2211,-0.2198,-0.2226,-0.2202,-0.2173,-0.2169,-0.202,-0.2001,-0.2232,-0.2232,-0.2232,-0.2232,-0.2232,0,-0.1738,-0.1763,-0.1823,-0.1839,-0.1884,-0.1937,-0.1991,-0.2036,-0.2104,-0.2151,-0.2189,-0.2228,-0.2241,-0.2257,-0.2232,-0.2222,-0.2242,-0.2199,-0.2181,-0.2035,-0.202,-0.2154,-0.2146,-0.223,-0.2231,-0.2231,-0.2231,0,-0.1701,-0.1744,-0.1783,-0.1849,-0.1872,-0.1899,-0.1982,-0.2019,-0.2087,-0.2149,-0.2164,-0.2234,-0.2259,-0.2265,-0.2267,-0.2243,-0.2235,-0.2221,-0.2028,-0.1991,-0.2139,-0.2135,-0.2183,-0.2183,-0.2183,-0.2183,-0.2183,0,-0.1688,-0.1701,-0.1769,-0.1786,-0.1813,-0.1864,-0.19,-0.199,-0.2034,-0.2154,-0.2176,-0.2237,-0.2274,-0.2281,-0.2246,-0.221,-0.2234,-0.203,-0.2011,-0.217,-0.2146,-0.2141,-0.2137,-0.1802,-0.1799,-0.1797,-0.1795,0,-0.1647,-0.1667,-0.1692,-0.1732,-0.1767,-0.1814,-0.1874,-0.1915,-0.2021,-0.2089,-0.2178,-0.2229,-0.2256,-0.2175,-0.214,-0.2088,-0.2031,-0.1981,-0.2202,-0.1869,-0.1816,-0.1791,-0.1798,-0.1772,-0.1774,-0.1776,-0.1777,-0.1778,-0.1601,-0.1605,-0.1633,-0.1663,-0.1705,-0.1743,-0.1752,-0.1839,-0.1914,-0.1989,-0.2103,-0.2121,-0.2114,-0.2015,-0.1927,-0.1832,-0.1963,-0.1845,-0.185,-0.1858,-0.1852,-0.1806,-0.1753,-0.1755,-0.1757,-0.1759,-0.176,0,-0.1536,-0.1544,-0.1563,-0.1592,-0.1595,-0.1652,-0.1712,-0.1701,-0.1758,-0.1856,-0.1928,-0.1796,-0.1776,-0.1751,-0.1599,-0.1582,-0.1524,-0.149,-0.1403,-0.1428,-0.145,-0.1421,-0.1208,-0.1206,-0.1205,-0.1203,0,0,-0.15,-0.1485,-0.1494,-0.147,-0.1485,-0.146,-0.1472,-0.1484,-0.1522,-0.1532,-0.1551,-0.1722,-0.1748,-0.1498,-0.1429,-0.1297,-0.134,-0.123,-0.1676,-0.1601,-0.162,-0.1664,-0.165,0,0,0,0,0]},{"header":{"parameterUnit":"m.s-1","parameterCategory":2,"la1":30.2991,"la2":30.254,"lo1":-89.0895,"lo2":-89.0444,"dy":0.0017,"dx":0.0017,"nx":28,"ny":28,"refTime":"2024-08-23T21:00:00:Z","depth":"2","parameterNumber":3,"parameterNumberName":"V-component_of_CURRENTS"},"data":[0,0,0,0,0,0,0,0,0,0,0,0,0,0,0,0,0,0,0,0,0,0,0,0,0,0,0,0,0,0,0,0,0,0,0,0,0,0,0,0,0,0,0,0,0,0,0,0,0,0,0,0,0,0,0,0,0,0,-0.0117,-0.0116,0,-0.0056,-0.0056,-0.0055,-0.0025,-0.0025,-0.0025,-0.0025,0.0036,0.0038,0.0039,0,0,0,0,0,0,0,0,0,0,0,0,0,-0.0159,-0.0159,-0.0117,-0.0116,-0.0115,-0.0056,-0.0056,-0.0055,-0.0025,-0.0025,-0.0025,-0.0024,0.0036,0.0037,0.0039,0,0,0,0,0,0,0,0,0,0,0,0,0,-0.0125,-0.0159,-0.0117,-0.0092,-0.0089,-0.0057,-0.0056,-0.0055,-0.0025,-0.0025,-0.0025,-0.0024,0.0035,0.0037,0.0039,0.0049,0,0,0.0046,0.0047,0,0,0,0,0,0,0,0,-0.0127,-0.0124,-0.0096,-0.0094,-0.009,-0.0047,-0.0048,-0.002,-0.0025,-0.0051,-0.0025,-0.0024,0.0009,0.0014,0.0022,0.0052,0.0054,0.0046,0.0048,0.0049,0.0049,0,0,0,0,0,0,0,-0.013,-0.0126,-0.0094,-0.0096,-0.0092,-0.0067,-0.0063,-0.0043,-0.0024,-0.0049,-0.0046,-0.0037,0.0011,0.002,0.0024,0.0055,0.0046,0.0048,0.005,0.0051,0.0098,0.0098,0,0,0,0,0,0,-0.0137,-0.0129,-0.0096,-0.0092,-0.0107,-0.0067,-0.0062,-0.0062,-0.0024,-0.0018,-0.0037,-0.0036,0.0016,0.0022,0.0026,0.0041,0.0049,0.0051,0.0052,0.0098,0.0098,0.0098,0,0,0,0,0,0,-0.0139,-0.0135,-0.0099,-0.0107,-0.0101,-0.0067,-0.0067,-0.0061,-0.0051,-0.0015,-0.0009,-0.0033,0.0017,0.0023,0.0045,0.0043,0.0052,0.0054,0.0099,0.0098,0.0098,0.0069,0,0,0,0,0,0,-0.014,-0.0136,-0.0138,-0.0108,-0.0101,-0.0085,-0.0067,-0.006,-0.0045,-0.0043,-0.0009,-0.0003,0.0017,0.0041,0.0047,0.0047,0.0056,0.0099,0.0099,0.0098,0.007,0.0068,0.0066,0,0,0,0,0,-0.0142,-0.0148,-0.0139,-0.0135,-0.0105,-0.0085,-0.0079,-0.0054,-0.0045,-0.0044,-0.0019,-0.0004,0.0044,0.0043,0.005,0.005,0.0099,0.0099,0.0098,0.0071,0.0069,0.0066,0,0,0,0,0,0,-0.0168,-0.0145,-0.0134,-0.0133,-0.0112,-0.0079,-0.0074,-0.0057,-0.0036,-0.0035,-0.0003,0.0005,0.0022,0.004,0.0038,0.0063,0.0073,0.0074,0.005,0.0048,0.0046,0.0034,0.0057,0,0,0,0,0,-0.0174,-0.0175,-0.0146,-0.0146,-0.0137,-0.0106,-0.0094,-0.0079,-0.0055,-0.0046,-0.002,0.0005,0.0027,0.004,0.006,0.0076,0.0101,0.0079,0.0077,0.0076,0.007,0.012,0.0122,0.0098,0.0098,0.0098,0,0,-0.0184,-0.0171,-0.0171,-0.0151,-0.0133,-0.0128,-0.0099,-0.0087,-0.0081,-0.0042,-0.0029,-0.0002,0.0029,0.0046,0.0055,0.0061,0.0094,0.0075,0.0074,0.007,0.012,0.0123,0.0125,0.0098,0.0098,0.0098,0,0,-0.0209,-0.0194,-0.0204,-0.019,-0.0167,-0.0145,-0.0143,-0.0112,-0.0097,-0.0079,-0.005,-0.0022,0.0008,0.0035,0.0051,0.005,0.0081,0.0054,0.0037,0.0085,0.0088,0.009,0.0117,0.0122,0.0054,0.0054,0.0054,0,-0.0223,-0.0231,-0.0202,-0.0208,-0.0202,-0.0157,-0.0167,-0.0141,-0.0107,-0.0095,-0.0081,-0.0025,0.0003,0.0032,0.0032,0.0046,0.0071,0.0043,0.0083,0.0086,0.0089,0.0116,0.0122,0.0053,0.0053,0.0053,0.0053,0,-0.0254,-0.0259,-0.0263,-0.0257,-0.0246,-0.0245,-0.0209,-0.0191,-0.0165,-0.0138,-0.0104,-0.0057,-0.0025,-0.0008,0.0012,0.0045,0.0054,0.0074,0.0089,0.009,0.0118,0.0125,0.0051,0.0051,0.0052,0.0052,0,0,-0.0292,-0.0288,-0.0291,-0.03,-0.0274,-0.0271,-0.0255,-0.0229,-0.0221,-0.0172,-0.0157,-0.0103,-0.0071,-0.0051,-0.0013,0.0033,0.0077,0.0058,0.0061,0.0083,0.017,0.0199,0.021,0.0108,0.0109,0.011,0.0178,0,-0.0326,-0.0358,-0.034,-0.0363,-0.0375,-0.0333,-0.0328,-0.0297,-0.0256,-0.0226,-0.0159,-0.013,-0.0088,-0.0072,-0.0018,0.0055,0.0095,0.0056,0.0166,0.0169,0.0195,0.0219,0.0189,0.025,0.0185,0.0186,0.0187,0,-0.0364,-0.0381,-0.0416,-0.0426,-0.0427,-0.0428,-0.0408,-0.0394,-0.0333,-0.0305,-0.0248,-0.0194,-0.0122,-0.0086,0.0043,0.0017,0.0084,0.0144,0.0148,0.0191,0.0212,0.024,0.0265,0.0199,0.0198,0.0197,0.0196,0,-0.0412,-0.0433,-0.0466,-0.0468,-0.0467,-0.0471,-0.0461,-0.0419,-0.0412,-0.0345,-0.033,-0.0234,-0.0184,-0.0078,0.0051,0.0047,0.0196,0.0207,0.0294,0.0296,0.0299,0.03,0.0292,0.0292,0.0292,0.0292,0.0291,0,-0.0456,-0.0481,-0.0491,-0.0508,-0.0549,-0.0523,-0.0542,-0.0515,-0.0477,-0.0476,-0.0372,-0.0339,-0.0177,-0.0069,0.004,0.0195,0.0191,0.0295,0.0323,0.0287,0.0286,0.0264,0.026,0.0294,0.0294,0.0293,0.0293,0,-0.0501,-0.0505,-0.0547,-0.0564,-0.0572,-0.0598,-0.0605,-0.0617,-0.0566,-0.0554,-0.0537,-0.0409,-0.0262,-0.0099,0.0081,0.018,0.0322,0.0371,0.031,0.0331,0.0385,0.0379,0.0471,0.0473,0.0474,0.0475,0.0477,0,-0.0526,-0.0551,-0.0598,-0.0634,-0.0643,-0.0673,-0.0701,-0.0669,-0.0673,-0.0598,-0.0597,-0.0449,-0.0345,-0.0058,0.0153,0.0359,0.036,0.0441,0.0435,0.039,0.0407,0.0398,0.039,0.042,0.0421,0.0421,0.0421,0,-0.0573,-0.0588,-0.0626,-0.0708,-0.075,-0.0798,-0.082,-0.0836,-0.0795,-0.0779,-0.0712,-0.0616,-0.0312,-0.0064,0.0229,0.034,0.041,0.0456,0.0442,0.0382,0.0349,0.0363,0.0356,0.0425,0.0425,0.0424,0.0424,0.0424,-0.0607,-0.0651,-0.0708,-0.0785,-0.0846,-0.091,-0.095,-0.0962,-0.0979,-0.0939,-0.0808,-0.0647,-0.0354,0.0058,0.0278,0.0478,0.0467,0.0508,0.0504,0.05,0.0485,0.0457,0.0549,0.0549,0.055,0.055,0.055,0,-0.0648,-0.0702,-0.0783,-0.0874,-0.0961,-0.0971,-0.1029,-0.1054,-0.1088,-0.1006,-0.0918,-0.0604,-0.0278,0.0024,0.0353,0.0549,0.0529,0.057,0.0511,0.0505,0.0501,0.0484,0.0549,0.055,0.055,0.0551,0,0,-0.0671,-0.0754,-0.0802,-0.0955,-0.1025,-0.1123,-0.1161,-0.1185,-0.1138,-0.1086,-0.0952,-0.0698,-0.0295,-0.0059,0.0208,0.0385,0.0378,0.039,0.0367,0.0258,0.0251,0.0443,0.0407,0,0,0,0,0]}],[{"header":{"parameterUnit":"m.s-1","parameterCategory":2,"la1":30.2991,"la2":30.254,"lo1":-89.0895,"lo2":-89.0444,"dy":0.0017,"dx":0.0017,"nx":28,"ny":28,"refTime":"2024-08-23T21:00:00:Z","depth":"4","parameterNumber":2,"parameterNumberName":"U-component_of_CURRENTS"},"data":[0,0,0,0,0,0,0,0,0,0,0,0,0,0,0,0,0,0,0,0,0,0,0,0,0,0,0,0,0,0,0,0,0,0,0,0,0,0,0,0,0,0,0,0,0,0,0,0,0,0,0,0,0,0,0,0,0,0,-0.1234,-0.1234,0,-0.1271,-0.1271,-0.1272,-0.1288,-0.1288,-0.1288,-0.1288,-0.1317,-0.1318,-0.1319,0,0,0,0,0,0,0,0,0,0,0,0,0,-0.1171,-0.1172,-0.1234,-0.1234,-0.1235,-0.1271,-0.1271,-0.1272,-0.1288,-0.1288,-0.1288,-0.1288,-0.1317,-0.1318,-0.1319,0,0,0,0,0,0,0,0,0,0,0,0,0,-0.1201,-0.1173,-0.1234,-0.1249,-0.1251,-0.1271,-0.1271,-0.1272,-0.1288,-0.1288,-0.1288,-0.1288,-0.1317,-0.1318,-0.1319,-0.1322,0,0,-0.1322,-0.1322,0,0,0,0,0,0,0,0,-0.1199,-0.1203,-0.1246,-0.1248,-0.125,-0.1277,-0.126,-0.1289,-0.1288,-0.1272,-0.1288,-0.1289,-0.1304,-0.1306,-0.131,-0.1323,-0.1324,-0.1322,-0.1323,-0.1323,-0.1323,0,0,0,0,0,0,0,-0.1197,-0.1201,-0.1247,-0.1247,-0.1249,-0.1252,-0.1256,-0.1266,-0.1285,-0.1273,-0.1275,-0.1282,-0.1305,-0.1309,-0.1311,-0.1325,-0.1322,-0.1323,-0.1323,-0.1324,-0.1399,-0.1401,0,0,0,0,0,0,-0.1196,-0.1199,-0.1246,-0.1248,-0.1227,-0.1253,-0.1258,-0.1266,-0.1285,-0.1289,-0.1282,-0.1283,-0.1307,-0.131,-0.1312,-0.1374,-0.1323,-0.1324,-0.1325,-0.1398,-0.14,-0.1401,0,0,0,0,0,0,-0.1195,-0.12,-0.1244,-0.1226,-0.1232,-0.1254,-0.1264,-0.1267,-0.1292,-0.1292,-0.1295,-0.1306,-0.1308,-0.1311,-0.1344,-0.1373,-0.1324,-0.1325,-0.1396,-0.1398,-0.14,-0.1461,0,0,0,0,0,0,-0.1193,-0.1199,-0.1216,-0.1226,-0.1233,-0.1276,-0.1264,-0.1268,-0.1296,-0.1298,-0.1313,-0.1315,-0.1308,-0.1343,-0.1345,-0.1374,-0.1326,-0.1395,-0.1397,-0.14,-0.1457,-0.1465,-0.1472,0,0,0,0,0,-0.1191,-0.1209,-0.1216,-0.1222,-0.1251,-0.1277,-0.1282,-0.1296,-0.1297,-0.1317,-0.1328,-0.1316,-0.1361,-0.1345,-0.1348,-0.1377,-0.1393,-0.1396,-0.14,-0.1454,-0.1464,-0.1472,0,0,0,0,0,0,-0.1192,-0.1213,-0.1221,-0.1246,-0.127,-0.1281,-0.1302,-0.131,-0.1334,-0.1339,-0.1335,-0.1338,-0.1377,-0.137,-0.1353,-0.1406,-0.1375,-0.1379,-0.1416,-0.1424,-0.1431,-0.1434,-0.1327,0,0,0,0,0,-0.1199,-0.122,-0.124,-0.1264,-0.1277,-0.1294,-0.1309,-0.1321,-0.1338,-0.1349,-0.1361,-0.1374,-0.1389,-0.1402,-0.1413,-0.1444,-0.143,-0.1464,-0.1471,-0.1477,-0.1482,-0.146,-0.1465,-0.1412,-0.1412,-0.1411,0,0,-0.1206,-0.1221,-0.1234,-0.1266,-0.1284,-0.1313,-0.1304,-0.1336,-0.1367,-0.1348,-0.1398,-0.1401,-0.1403,-0.1439,-0.1455,-0.1439,-0.1495,-0.1481,-0.1486,-0.1488,-0.1464,-0.1469,-0.1473,-0.1414,-0.1413,-0.1413,0,0,-0.1224,-0.1246,-0.1268,-0.1292,-0.1327,-0.134,-0.1356,-0.1383,-0.1406,-0.1447,-0.1442,-0.1464,-0.1491,-0.1497,-0.1502,-0.1556,-0.1532,-0.1563,-0.1603,-0.1583,-0.1586,-0.1589,-0.1615,-0.162,-0.1567,-0.1567,-0.1567,0,-0.1235,-0.1263,-0.1281,-0.131,-0.1335,-0.1357,-0.1389,-0.1417,-0.1455,-0.1477,-0.1474,-0.1514,-0.1518,-0.1552,-0.1574,-0.1572,-0.1568,-0.157,-0.1591,-0.1593,-0.1595,-0.162,-0.1624,-0.157,-0.157,-0.157,-0.1569,0,-0.1262,-0.1296,-0.1313,-0.1357,-0.1389,-0.1422,-0.146,-0.15,-0.1526,-0.1546,-0.1593,-0.1594,-0.1615,-0.1623,-0.1618,-0.1643,-0.1641,-0.16,-0.1565,-0.1604,-0.1629,-0.1632,-0.1575,-0.1574,-0.1573,-0.1572,0,0,-0.1251,-0.1319,-0.1327,-0.1356,-0.1417,-0.1441,-0.1506,-0.1561,-0.16,-0.1635,-0.1676,-0.1704,-0.1701,-0.1705,-0.1698,-0.1688,-0.1713,-0.1658,-0.1655,-0.1679,-0.1703,-0.1616,-0.1611,-0.1666,-0.1667,-0.1667,-0.1727,0,-0.1268,-0.1323,-0.1359,-0.1421,-0.1453,-0.1503,-0.1557,-0.1612,-0.1656,-0.1705,-0.1716,-0.1748,-0.1734,-0.1742,-0.1734,-0.1714,-0.1719,-0.1703,-0.1665,-0.1666,-0.1578,-0.161,-0.1667,-0.173,-0.173,-0.1731,-0.1731,0,-0.1275,-0.1314,-0.1375,-0.145,-0.147,-0.1516,-0.1601,-0.1653,-0.1728,-0.1756,-0.1792,-0.1803,-0.1829,-0.1787,-0.1785,-0.1774,-0.1752,-0.1729,-0.1729,-0.1624,-0.1582,-0.1674,-0.1737,-0.1736,-0.1736,-0.1735,-0.1735,0,-0.1239,-0.1322,-0.137,-0.1397,-0.1488,-0.1532,-0.1585,-0.1669,-0.1716,-0.1788,-0.1819,-0.1849,-0.1859,-0.1834,-0.1816,-0.1798,-0.1797,-0.1758,-0.167,-0.1666,-0.1699,-0.1695,-0.1744,-0.1743,-0.1743,-0.1743,-0.1743,0,-0.1226,-0.1268,-0.1361,-0.1385,-0.1449,-0.1518,-0.159,-0.1649,-0.173,-0.1776,-0.1836,-0.1859,-0.1862,-0.187,-0.1841,-0.1776,-0.1819,-0.1687,-0.1664,-0.1731,-0.1729,-0.1704,-0.1699,-0.1745,-0.1745,-0.1744,-0.1744,0,-0.1173,-0.1238,-0.1297,-0.1397,-0.1433,-0.1476,-0.1585,-0.1628,-0.1715,-0.1776,-0.1798,-0.1873,-0.1877,-0.1888,-0.1857,-0.1795,-0.1747,-0.1712,-0.1833,-0.1815,-0.1636,-0.1634,-0.1624,-0.1621,-0.1619,-0.1617,-0.1615,0,-0.1149,-0.1174,-0.1286,-0.1319,-0.1368,-0.1445,-0.1494,-0.1603,-0.1644,-0.1766,-0.1778,-0.1837,-0.1867,-0.178,-0.1789,-0.1751,-0.1711,-0.1698,-0.1624,-0.164,-0.1619,-0.162,-0.1621,-0.1612,-0.1611,-0.161,-0.161,0,-0.1094,-0.1143,-0.1187,-0.1256,-0.1316,-0.1375,-0.1453,-0.1476,-0.1592,-0.169,-0.1711,-0.172,-0.1731,-0.1713,-0.1698,-0.1659,-0.1709,-0.1673,-0.1676,-0.1606,-0.1624,-0.1606,-0.161,-0.1601,-0.1603,-0.1603,-0.1604,0,-0.1049,-0.1064,-0.1125,-0.1172,-0.1245,-0.1277,-0.1336,-0.1383,-0.1442,-0.158,-0.1583,-0.1647,-0.1718,-0.1667,-0.1651,-0.1613,-0.1573,-0.1508,-0.1519,-0.1529,-0.1462,-0.1469,-0.1383,0,0,0,0,0,-0.0995,-0.0998,-0.1036,-0.1083,-0.1147,-0.1189,-0.1293,-0.1352,-0.1473,-0.1451,-0.1514,-0.1521,-0.1511,-0.1547,-0.148,-0.1594,-0.1572,-0.1511,-0.1502,-0.1555,-0.1565,-0.1492,0,0,0,0,0,0,-0.0959,-0.099,-0.1,-0.0992,-0.1003,-0.1067,-0.1128,-0.1212,-0.121,-0.1334,-0.1333,-0.1427,-0.1431,-0.1517,-0.1445,-0.1454,-0.1418,-0.1557,-0.1553,-0.155,-0.1559,-0.1566,-0.1494,0,0,0,0,0]},{"header":{"parameterUnit":"m.s-1","parameterCategory":2,"la1":30.2991,"la2":30.254,"lo1":-89.0895,"lo2":-89.0444,"dy":0.0017,"dx":0.0017,"nx":28,"ny":28,"refTime":"2024-08-23T21:00:00:Z","depth":"4","parameterNumber":3,"parameterNumberName":"V-component_of_CURRENTS"},"data":[0,0,0,0,0,0,0,0,0,0,0,0,0,0,0,0,0,0,0,0,0,0,0,0,0,0,0,0,0,0,0,0,0,0,0,0,0,0,0,0,0,0,0,0,0,0,0,0,0,0,0,0,0,0,0,0,0,0,-0.0074,-0.0074,0,-0.0029,-0.0028,-0.0028,-0.0002,-0.0001,-0.0001,-0.0001,0.0055,0.0056,0.0058,0,0,0,0,0,0,0,0,0,0,0,0,0,-0.0096,-0.0096,-0.0074,-0.0074,-0.0073,-0.0029,-0.0028,-0.0028,-0.0002,-0.0001,-0.0001,-0.0001,0.0055,0.0056,0.0058,0,0,0,0,0,0,0,0,0,0,0,0,0,-0.0073,-0.0096,-0.0074,-0.0054,-0.0052,-0.0029,-0.0028,-0.0028,-0.0002,-0.0001,-0.0001,-0.0001,0.0054,0.0056,0.0058,0.0066,0,0,0.0064,0.0065,0,0,0,0,0,0,0,0,-0.0075,-0.0073,-0.0058,-0.0055,-0.0053,-0.002,-0.0015,0.0004,-0.0002,-0.0021,-0.0001,-0.0001,0.0031,0.0035,0.0042,0.0068,0.0071,0.0065,0.0066,0.0067,0.0067,0,0,0,0,0,0,0,-0.0076,-0.0074,-0.0057,-0.0057,-0.0054,-0.0033,-0.003,-0.0011,0.0003,-0.002,-0.0018,-0.0011,0.0033,0.004,0.0044,0.0072,0.0064,0.0066,0.0067,0.0068,0.0107,0.0107,0,0,0,0,0,0,-0.0083,-0.0076,-0.0058,-0.0056,-0.0063,-0.0033,-0.0029,-0.0031,0.0002,0.0008,-0.0012,-0.001,0.0037,0.0041,0.0046,0.0055,0.0067,0.0068,0.007,0.0107,0.0107,0.0107,0,0,0,0,0,0,-0.0084,-0.0082,-0.006,-0.0063,-0.0059,-0.0033,-0.0035,-0.0031,-0.0023,0.0008,0.0014,-0.0008,0.0037,0.0043,0.0062,0.0058,0.0069,0.0071,0.0107,0.0107,0.0107,0.0075,0,0,0,0,0,0,-0.0085,-0.0083,-0.0087,-0.0064,-0.0059,-0.0051,-0.0035,-0.003,-0.0019,-0.0017,0.0013,0.0019,0.0038,0.0059,0.0064,0.0061,0.0073,0.0108,0.0107,0.0107,0.0077,0.0074,0.0072,0,0,0,0,0,-0.0086,-0.0094,-0.0087,-0.0085,-0.0065,-0.0051,-0.0047,-0.0027,-0.0019,-0.0019,0.0004,0.0018,0.006,0.0061,0.0067,0.0064,0.0108,0.0107,0.0107,0.0078,0.0075,0.0072,0,0,0,0,0,0,-0.0106,-0.0091,-0.0084,-0.0087,-0.0072,-0.0047,-0.0044,-0.003,-0.0012,-0.001,0.0019,0.0026,0.0039,0.0056,0.0055,0.0073,0.0085,0.0086,0.0061,0.0058,0.0056,0.0043,0.0074,0,0,0,0,0,-0.0112,-0.0115,-0.0095,-0.0098,-0.0092,-0.0069,-0.006,-0.0048,-0.0028,-0.002,0.0002,0.0024,0.0042,0.0053,0.0071,0.0083,0.0104,0.0084,0.0082,0.008,0.0073,0.0089,0.0087,0.0105,0.0105,0.0105,0,0,-0.0121,-0.0113,-0.0115,-0.0102,-0.009,-0.0088,-0.0063,-0.0055,-0.0052,-0.0017,-0.0007,0.0017,0.0043,0.0056,0.0063,0.007,0.0091,0.0079,0.0077,0.0072,0.0088,0.0086,0.0085,0.0105,0.0105,0.0105,0,0,-0.0142,-0.0134,-0.0144,-0.0135,-0.0119,-0.0103,-0.0102,-0.0078,-0.0067,-0.0053,-0.0028,-0.0007,0.0021,0.0039,0.0052,0.0047,0.0077,0.0053,0.0032,0.0048,0.0046,0.0045,0.0093,0.0096,0.0053,0.0052,0.0052,0,-0.0153,-0.0164,-0.0143,-0.015,-0.0148,-0.0113,-0.0123,-0.0105,-0.0077,-0.007,-0.0056,-0.0013,0.0011,0.0028,0.0027,0.0041,0.0064,0.0041,0.0044,0.0043,0.0042,0.0092,0.0096,0.0051,0.0051,0.0051,0.0051,0,-0.018,-0.0188,-0.0193,-0.0192,-0.0187,-0.0188,-0.0163,-0.0151,-0.0131,-0.0111,-0.0089,-0.0051,-0.0027,-0.0014,0.0007,0.0015,0.004,0.0038,0.005,0.0039,0.0092,0.0097,0.0049,0.0049,0.005,0.005,0,0,-0.0208,-0.0213,-0.0216,-0.0226,-0.0211,-0.0212,-0.0204,-0.019,-0.0187,-0.015,-0.0143,-0.0104,-0.0078,-0.0062,-0.003,-0.0011,0.0017,0.0009,0.001,0.0055,0.0075,0.0075,0.0081,0.0012,0.0012,0.0012,0.0122,0,-0.0236,-0.0266,-0.0257,-0.0282,-0.0294,-0.0267,-0.0269,-0.025,-0.0221,-0.0201,-0.0153,-0.0134,-0.0097,-0.0084,-0.006,-0.0003,0.0023,-0.0012,0.008,0.0084,0.0082,0.0083,0.0012,0.0126,0.0127,0.0128,0.0129,0,-0.0265,-0.0283,-0.0318,-0.0336,-0.034,-0.0347,-0.0343,-0.0336,-0.0295,-0.0275,-0.0236,-0.0193,-0.0142,-0.0122,-0.0026,-0.005,0.0005,0.005,0.0055,0.0065,0.0091,0.0134,0.0138,0.0137,0.0136,0.0136,0.0135,0,-0.0297,-0.0324,-0.0357,-0.0362,-0.0374,-0.0384,-0.0384,-0.036,-0.036,-0.0314,-0.0305,-0.0235,-0.0198,-0.0126,-0.0017,-0.0025,0.0089,0.0089,0.0147,0.015,0.0131,0.0131,0.0139,0.0139,0.0138,0.0138,0.0138,0,-0.0327,-0.0353,-0.0377,-0.0394,-0.0438,-0.0427,-0.0454,-0.0439,-0.0419,-0.0423,-0.0345,-0.0321,-0.0203,-0.0116,-0.0026,0.0087,0.0087,0.0146,0.0169,0.012,0.0117,0.0137,0.0135,0.0142,0.0141,0.014,0.014,0,-0.0352,-0.0366,-0.0409,-0.0439,-0.0454,-0.0483,-0.0508,-0.0523,-0.0492,-0.0489,-0.0478,-0.0378,-0.0262,-0.0129,0.0006,0.0075,0.0181,0.0216,0.0184,0.0203,0.024,0.0236,0.0293,0.0294,0.0294,0.0295,0.0295,0,-0.0366,-0.039,-0.0449,-0.0486,-0.0502,-0.0542,-0.0575,-0.0564,-0.0572,-0.0524,-0.0522,-0.0409,-0.0332,-0.0119,0.0013,0.0201,0.0212,0.0277,0.0229,0.0235,0.0252,0.0246,0.0241,0.0296,0.0296,0.0296,0.0297,0,-0.0392,-0.0415,-0.0452,-0.0534,-0.0582,-0.0633,-0.0665,-0.0676,-0.0656,-0.0632,-0.0559,-0.044,-0.0302,-0.0128,0.0024,0.015,0.0239,0.0283,0.0282,0.0238,0.0239,0.0255,0.0249,0.0299,0.0298,0.0298,0.0298,0,-0.0411,-0.0448,-0.0505,-0.0574,-0.0647,-0.0702,-0.0713,-0.0713,-0.0711,-0.0647,-0.0621,-0.0462,-0.0363,-0.0154,-0.0016,0.0115,0.0135,0.016,0.0166,0.0165,0.0086,0.0066,0.0092,0,0,0,0,0,-0.0425,-0.0471,-0.0543,-0.062,-0.0695,-0.0734,-0.0769,-0.0766,-0.0742,-0.0705,-0.0661,-0.0532,-0.0313,-0.0204,-0.0075,-0.0013,0.0155,0.0141,0.0185,0.031,0.0308,0.0236,0,0,0,0,0,0,-0.0437,-0.0502,-0.0544,-0.0647,-0.0707,-0.0782,-0.0807,-0.0791,-0.0754,-0.0709,-0.0587,-0.0516,-0.0294,-0.0392,-0.0079,-0.0035,0.0006,0.0252,0.0254,0.0312,0.031,0.0308,0.0233,0,0,0,0,0]}]]